Weather History for KCUT - October, 2011

Change the Weather History Date:

Thursday, October 6, 2011

  Actual Average Record
Temperature  
Mean Temperature 49 °F 46 °F  
Max Temperature 58 °F 58 °F 82 °F (1963)
Min Temperature 39 °F 33 °F 4 °F (1952)
Degree Days  
Heating Degree Days 16 19  
Month to date heating degree days 27 111  
Since 1 July heating degree days 379 597  
Cooling Degree Days 0 0  
Month to date cooling degree days 0 0  
Year to date cooling degree days 267 177  
Moisture  
Dew Point 45 °F    
Average Humidity 81    
Maximum Humidity 100    
Minimum Humidity 61    
Precipitation  
Precipitation 0.04 in 0.06 in 0.61 in (1962)
Month to date precipitation 0.04 0.39  
Year to date precipitation 19.70 16.88  
Sea Level Pressure  
Sea Level Pressure 29.50 in    
Wind  
Wind Speed 5 mph (North)    
Max Wind Speed 20 mph    
Max Gust Speed 26 mph    
Visibility 10 miles    
Events Rain    
T = Trace of Precipitation, MM = Missing Value Source: NWS Daily Summary

Daily Weather History Graph

Daily Weather History Graph

Search for Another Location

Airport or City:

Trip Planner

Search our weather history database for the weather conditions in past years. The results will help you decide how hot, cold, wet, or windy it might be!

Date:

Astronomy

Oct. 06, 2011 Rise Set
Actual Time 6:57 AM MDT 6:26 PM MDT
Civil Twilight 6:28 AM MDT 6:55 PM MDT
Nautical Twilight 5:55 AM MDT 7:28 PM MDT
Astronomical Twilight 5:22 AM MDT 8:02 PM MDT
Moon 3:49 PM MDT (10/6) 1:39 AM MDT (10/6)
Length of Visible Light 12h 26m
Length of Day
11h 29m
Waxing Gibbous, 76% of the Moon is Illuminated
Oct 6
Waxing Gibbous
Oct 11
Full
Oct 19
Last Quarter
Oct 26
New
Nov 2
First Quarter

Hourly Weather History & Observations

Time (MDT) Temp. Windchill Dew Point Humidity Pressure Visibility Wind Dir Wind Speed Gust Speed Precip Events Conditions
12:53 AM 55.0 °F - 43.0 °F 64% 29.49 in 10.0 mi Variable 4.6 mph - N/A   Scattered Clouds
1:53 AM 55.0 °F - 43.0 °F 64% 29.49 in 10.0 mi SSW 4.6 mph - N/A   Overcast
2:53 AM 52.0 °F - 43.0 °F 71% 29.46 in 10.0 mi Calm Calm - 0.00 in   Partly Cloudy
3:53 AM 50.0 °F - 43.0 °F 77% 29.47 in 10.0 mi South 4.6 mph - N/A   Clear
4:53 AM 46.9 °F - 42.1 °F 83% 29.48 in 10.0 mi Calm Calm - N/A   Clear
5:53 AM 46.0 °F - 42.1 °F 86% 29.47 in 10.0 mi Calm Calm - N/A   Clear
6:53 AM 43.0 °F - 41.0 °F 93% 29.48 in 10.0 mi Calm Calm - N/A   Partly Cloudy
7:53 AM 45.0 °F - 42.1 °F 90% 29.47 in 10.0 mi Calm Calm - N/A   Mostly Cloudy
8:05 AM 46.4 °F 45.2 °F 42.8 °F 87% 29.61 in 10.0 mi NE 3.5 mph - N/A   Mostly Cloudy
8:14 AM 46.4 °F 45.2 °F 44.6 °F 93% 29.61 in 10.0 mi ENE 3.5 mph - N/A   Overcast
8:37 AM 50.0 °F - 46.4 °F 87% 29.61 in 10.0 mi Calm Calm - N/A   Overcast
8:53 AM 51.1 °F - 46.9 °F 86% 29.47 in 10.0 mi Calm Calm - N/A   Overcast
9:53 AM 52.0 °F - 48.9 °F 89% 29.46 in 7.0 mi Variable 3.5 mph - N/A   Overcast
10:50 AM 53.6 °F - 48.2 °F 82% 29.59 in 10.0 mi Variable 4.6 mph - N/A   Overcast
10:53 AM 53.1 °F - 48.9 °F 86% 29.44 in 10.0 mi Variable 3.5 mph - N/A   Overcast
11:09 AM 53.6 °F - 48.2 °F 82% 29.59 in 10.0 mi Variable 3.5 mph - N/A   Overcast
11:19 AM 53.6 °F - 48.2 °F 82% 29.59 in 10.0 mi SE 6.9 mph - N/A   Overcast
11:53 AM 54.0 °F - 48.9 °F 83% 29.43 in 10.0 mi Variable 3.5 mph - 0.00 in Rain Light Rain
12:51 PM 57.2 °F - 48.2 °F 72% 29.57 in 10.0 mi Variable 3.5 mph - 0.00 in   Overcast
12:53 PM 55.9 °F - 48.0 °F 75% 29.42 in 10.0 mi Variable 4.6 mph - 0.00 in   Overcast
1:25 PM 55.4 °F - 48.2 °F 77% 29.55 in 10.0 mi ESE 5.8 mph - 0.00 in Rain Light Rain
1:53 PM 57.0 °F - 48.9 °F 74% 29.39 in 10.0 mi Variable 3.5 mph - 0.00 in   Overcast
2:07 PM 57.2 °F - 48.2 °F 72% 29.54 in 10.0 mi NNE 4.6 mph - N/A   Overcast
2:16 PM 57.2 °F - 48.2 °F 72% 29.53 in 10.0 mi North 4.6 mph - N/A   Overcast
2:38 PM 57.2 °F - 48.2 °F 72% 29.53 in 10.0 mi East 5.8 mph - N/A   Mostly Cloudy
2:53 PM 55.9 °F - 48.9 °F 77% 29.40 in 10.0 mi ENE 5.8 mph - 0.00 in Rain Light Rain
3:05 PM 55.4 °F - 50.0 °F 82% 29.53 in 10.0 mi Calm Calm - 0.00 in Rain Light Rain
3:53 PM 53.1 °F - 50.0 °F 89% 29.41 in 10.0 mi NNE 9.2 mph - 0.04 in Rain Light Rain
4:53 PM 53.1 °F - 50.0 °F 89% 29.37 in 10.0 mi NNW 3.5 mph - 0.00 in   Scattered Clouds
5:50 PM 53.6 °F - 51.8 °F 94% 29.50 in 9.0 mi NE 16.1 mph 20.7 mph N/A   Mostly Cloudy
5:53 PM 52.0 °F - 51.1 °F 97% 29.39 in 8.0 mi NE 12.7 mph 20.7 mph N/A   Mostly Cloudy
6:29 PM 51.8 °F - 50.0 °F 94% 29.48 in 8.0 mi NE 5.8 mph - N/A   Scattered Clouds
6:53 PM 51.1 °F - 50.0 °F 96% 29.40 in 10.0 mi NNE 3.5 mph - 0.00 in Rain Light Rain
7:34 PM 46.4 °F 41.1 °F 44.6 °F 93% 29.56 in 10.0 mi West 11.5 mph 24.2 mph 0.00 in Rain Light Rain
7:53 PM 45.0 °F 39.7 °F 43.0 °F 93% 29.49 in 10.0 mi WSW 10.4 mph 23.0 mph 0.00 in   Overcast
8:53 PM 42.1 °F 34.9 °F 39.0 °F 89% 29.48 in 10.0 mi West 13.8 mph 25.3 mph 0.00 in Rain Light Rain
9:00 PM 42.8 °F 37.5 °F 39.2 °F 87% 29.57 in 10.0 mi West 9.2 mph 18.4 mph 0.00 in   Scattered Clouds
9:53 PM 43.0 °F 37.2 °F 37.9 °F 82% 29.51 in 10.0 mi West 10.4 mph 18.4 mph 0.00 in   Mostly Cloudy
10:53 PM 42.1 °F 36.6 °F 33.1 °F 70% 29.48 in 10.0 mi West 9.2 mph 18.4 mph N/A   Partly Cloudy
11:53 PM 39.9 °F 35.1 °F 32.0 °F 73% 29.51 in 10.0 mi West 6.9 mph - N/A   Clear